TimeMDT,TemperatureF,Dew PointF,Humidity,Sea Level PressureIn,VisibilityMPH,Wind Direction,Wind SpeedMPH,Gust SpeedMPH,PrecipitationIn,Events,Conditions,WindDirDegrees,DateUTC
12:15 AM,21.0,5.9,52,30.20,10.0,SSW,11.5,19.6,N/A,,Clear,200,2013-03-26 06:15:00
12:35 AM,20.8,6.1,53,30.20,10.0,SSW,11.5,-,N/A,,Clear,200,2013-03-26 06:35:00
12:55 AM,20.3,6.1,54,30.19,10.0,SSW,13.8,17.3,N/A,,Clear,200,2013-03-26 06:55:00
1:15 AM,20.7,5.9,53,30.18,10.0,SSW,15.0,-,N/A,,Clear,200,2013-03-26 07:15:00
1:35 AM,20.3,5.9,54,30.18,10.0,South,17.3,-,N/A,,Clear,190,2013-03-26 07:35:00
1:55 AM,20.7,5.9,53,30.18,10.0,SSW,16.1,-,N/A,,Scattered Clouds,200,2013-03-26 07:55:00
2:15 AM,20.7,5.9,53,30.18,10.0,South,15.0,-,N/A,,Scattered Clouds,190,2013-03-26 08:15:00
2:35 AM,20.5,5.9,53,30.17,10.0,South,12.7,-,N/A,,Scattered Clouds,190,2013-03-26 08:35:00
2:55 AM,21.2,5.9,52,30.16,10.0,South,11.5,-,N/A,,Mostly Cloudy,180,2013-03-26 08:55:00
3:15 AM,21.0,6.4,53,30.16,10.0,SSE,8.1,-,N/A,,Overcast,160,2013-03-26 09:15:00
3:35 AM,20.1,6.4,55,30.16,10.0,Calm,Calm,-,N/A,,Mostly Cloudy,0,2013-03-26 09:35:00
3:55 AM,19.4,6.6,58,30.16,10.0,SSE,5.8,-,N/A,,Clear,160,2013-03-26 09:55:00
4:15 AM,17.4,7.2,64,30.16,10.0,SE,4.6,-,N/A,,Clear,130,2013-03-26 10:15:00
4:35 AM,16.0,7.2,68,30.15,10.0,SE,6.9,-,N/A,,Clear,140,2013-03-26 10:35:00
4:55 AM,16.7,7.3,67,30.14,10.0,SSE,4.6,-,N/A,,Clear,160,2013-03-26 10:55:00
5:15 AM,15.4,7.7,71,30.14,10.0,Calm,Calm,-,N/A,,Clear,0,2013-03-26 11:15:00
5:35 AM,13.6,7.5,77,30.14,10.0,WSW,4.6,-,N/A,,Clear,240,2013-03-26 11:35:00
5:55 AM,14.0,7.7,76,30.15,10.0,Calm,Calm,-,N/A,,Clear,0,2013-03-26 11:55:00
6:15 AM,14.4,7.7,75,30.15,10.0,South,4.6,-,N/A,,Clear,180,2013-03-26 12:15:00
6:35 AM,14.2,7.7,75,30.16,10.0,South,5.8,-,N/A,,Clear,190,2013-03-26 12:35:00
6:55 AM,15.4,8.2,73,30.16,10.0,WSW,4.6,-,N/A,,Clear,250,2013-03-26 12:55:00
7:15 AM,17.1,8.6,69,30.16,10.0,South,4.6,-,N/A,,Clear,190,2013-03-26 13:15:00
7:35 AM,19.2,10.0,67,30.16,10.0,SW,4.6,-,N/A,,Clear,230,2013-03-26 13:35:00
7:55 AM,22.6,11.8,63,30.17,10.0,South,3.5,-,N/A,,Clear,180,2013-03-26 13:55:00
8:15 AM,28.0,9.0,45,30.18,10.0,SSW,5.8,-,N/A,,Clear,210,2013-03-26 14:15:00
8:35 AM,30.2,8.8,41,30.18,10.0,WSW,6.9,-,N/A,,Clear,240,2013-03-26 14:35:00
8:55 AM,32.0,8.6,38,30.17,10.0,SW,10.4,-,N/A,,Clear,230,2013-03-26 14:55:00
9:15 AM,34.0,9.0,35,30.18,10.0,SW,8.1,-,N/A,,Clear,230,2013-03-26 15:15:00
9:35 AM,35.2,8.6,33,30.17,10.0,WSW,9.2,16.1,N/A,,Clear,240,2013-03-26 15:35:00
9:55 AM,36.9,8.8,31,30.17,10.0,West,12.7,24.2,N/A,,Clear,270,2013-03-26 15:55:00
10:35 AM,38.3,9.1,30,30.18,10.0,West,16.1,23.0,N/A,,Clear,270,2013-03-26 16:35:00
10:55 AM,39.2,9.3,29,30.18,10.0,West,10.4,18.4,N/A,,Clear,280,2013-03-26 16:55:00
11:15 AM,41.0,9.7,28,30.17,10.0,WNW,4.6,-,N/A,,Clear,290,2013-03-26 17:15:00
11:35 AM,42.6,10.2,27,30.16,10.0,WSW,13.8,19.6,N/A,,Clear,240,2013-03-26 17:35:00
11:55 AM,43.9,11.1,26,30.15,10.0,West,16.1,19.6,N/A,,Clear,280,2013-03-26 17:55:00
12:15 PM,45.1,11.3,25,30.15,10.0,West,10.4,19.6,N/A,,Clear,260,2013-03-26 18:15:00
12:35 PM,46.0,11.1,24,30.15,10.0,WSW,12.7,20.7,N/A,,Clear,250,2013-03-26 18:35:00
12:55 PM,46.9,11.3,24,30.14,10.0,West,15.0,20.7,N/A,,Clear,260,2013-03-26 18:55:00
1:15 PM,47.7,11.5,23,30.13,10.0,West,15.0,23.0,N/A,,Clear,270,2013-03-26 19:15:00
1:35 PM,47.5,10.8,23,30.13,10.0,WSW,5.8,20.7,N/A,,Clear,250,2013-03-26 19:35:00
1:55 PM,50.2,12.0,22,30.12,10.0,West,17.3,24.2,N/A,,Clear,270,2013-03-26 19:55:00
2:15 PM,49.3,11.5,22,30.11,10.0,West,16.1,24.2,N/A,,Clear,270,2013-03-26 20:15:00
2:35 PM,49.3,11.5,22,30.10,10.0,West,17.3,23.0,N/A,,Clear,280,2013-03-26 20:35:00
2:55 PM,49.3,12.0,22,30.10,10.0,West,19.6,35.7,N/A,,Scattered Clouds,270,2013-03-26 20:55:00
3:15 PM,48.9,11.8,23,30.09,10.0,West,17.3,26.5,N/A,,Scattered Clouds,270,2013-03-26 21:15:00
3:35 PM,50.0,11.7,21,30.08,10.0,West,12.7,26.5,N/A,,Scattered Clouds,270,2013-03-26 21:35:00
3:55 PM,50.5,11.8,21,30.07,10.0,West,9.2,24.2,N/A,,Scattered Clouds,270,2013-03-26 21:55:00
4:15 PM,50.9,11.7,21,30.07,10.0,SW,16.1,33.4,N/A,,Scattered Clouds,220,2013-03-26 22:15:00
4:35 PM,50.2,10.2,20,30.06,10.0,SW,15.0,31.1,N/A,,Scattered Clouds,220,2013-03-26 22:35:00
4:55 PM,50.2,10.6,20,30.07,10.0,SW,12.7,24.2,N/A,,Clear,230,2013-03-26 22:55:00
5:15 PM,49.1,9.3,20,30.06,10.0,SW,18.4,26.5,N/A,,Clear,230,2013-03-26 23:15:00
5:35 PM,49.3,8.4,19,30.06,10.0,WSW,17.3,34.5,N/A,,Clear,240,2013-03-26 23:35:00
5:55 PM,48.2,8.2,20,30.06,10.0,WSW,17.3,25.3,N/A,,Clear,250,2013-03-26 23:55:00
6:15 PM,47.3,8.4,21,30.05,10.0,WSW,13.8,23.0,N/A,,Clear,240,2013-03-27 00:15:00
6:35 PM,46.2,9.3,22,30.05,10.0,SW,17.3,21.9,N/A,,Clear,220,2013-03-27 00:35:00
6:55 PM,45.1,9.3,23,30.06,10.0,SW,11.5,25.3,N/A,,Clear,220,2013-03-27 00:55:00
7:15 PM,44.4,9.5,24,30.06,10.0,SW,12.7,20.7,N/A,,Clear,230,2013-03-27 01:15:00
7:35 PM,43.5,9.9,25,30.06,10.0,SW,8.1,18.4,N/A,,Clear,220,2013-03-27 01:35:00
7:55 PM,42.3,10.2,27,30.07,10.0,SSW,9.2,-,N/A,,Clear,210,2013-03-27 01:55:00
8:15 PM,41.4,10.2,28,30.07,10.0,SSW,10.4,-,N/A,,Clear,200,2013-03-27 02:15:00
8:35 PM,41.0,10.0,28,30.07,10.0,SSW,8.1,17.3,N/A,,Clear,210,2013-03-27 02:35:00
8:55 PM,38.1,10.4,32,30.07,10.0,Calm,Calm,-,N/A,,Clear,0,2013-03-27 02:55:00
9:15 PM,32.0,12.9,45,30.08,10.0,Calm,Calm,-,N/A,,Clear,0,2013-03-27 03:15:00
9:35 PM,30.0,13.5,50,30.09,10.0,Calm,Calm,-,N/A,,Clear,0,2013-03-27 03:35:00
9:55 PM,27.9,14.4,57,30.09,10.0,Calm,Calm,-,N/A,,Clear,0,2013-03-27 03:55:00
10:15 PM,27.7,14.4,57,30.09,10.0,Calm,Calm,-,N/A,,Clear,0,2013-03-27 04:15:00
10:35 PM,25.2,13.8,62,30.09,10.0,Calm,Calm,-,N/A,,Clear,0,2013-03-27 04:35:00
10:55 PM,24.1,12.9,62,30.09,10.0,Calm,Calm,-,N/A,,Clear,0,2013-03-27 04:55:00
11:15 PM,22.6,13.5,68,30.09,10.0,Calm,Calm,-,N/A,,Clear,0,2013-03-27 05:15:00
11:35 PM,20.8,13.6,74,30.08,10.0,Calm,Calm,-,N/A,,Clear,0,2013-03-27 05:35:00
11:55 PM,21.6,13.8,72,30.08,10.0,Calm,Calm,-,N/A,,Clear,0,2013-03-27 05:55:00